Location: Asheville, NC
(35.6000°N, 82.5500°W)
Time: 14:08:33
(UTC-04:00)

AO-73 - Pass Details

Date: 16 March 2018
Orbit: 582 x 665 km, 97.6° (Epoch: 19 June)

Event Time Altitude Azimuth Distance (km) Brightness Sun altitude
Rises 21:32:44 0° 194° (SSW) 2,867 ? -23.7°
Reaches altitude 10° 21:35:13 10° 207° (SSW) 1,952 ? -24.2°
Maximum altitude 21:38:44 25° 264° (W) 1,209 ? -24.9°
Drops below altitude 10° 21:42:14 10° 320° (NW) 1,928 ? -25.6°
Sets 21:44:41 0° 334° (NNW) 2,824 ? -26.0°
